Notices

What's New in latest Release from April 7th, 2021:

- Updated Glossary, including Speed of Maximum Gust, and Total Hourly Precipitation

- Updated national and regional climate services offices contacts and prices information

- Addition of station inventory lists for 1981-2010, 1971-2000, and 1961-1990 Normals.

If you haven't already, please take our survey and provide feedback about our website: https://eccc.sondage-survey.ca/f/LanguageSelection.aspx?s=442ca660-fcf1-47c0-95a9-59707d6fd709

Hourly Data Report for March 07, 2006

TORONTO CITY
ONTARIO

43°40'00.000" N
79°24'00.000" W
112.50 m
6158355
71508
XTO

Download Data

Hourly Data (March 2006)
Hourly Data Report for March 7, 2006
TIME
LST
Temp Definition
°C
Dew Point Definition
°C
Rel Hum Definition
%
Precip. Amount Definition
mm

Wind Dir Definition
10's deg

Wind Spd Definition
km/h
Visibility Definition
km
Stn Press Definition
kPa
Hmdx Definition


Wind Chill Definition


Weather Definition


00:00 -1.3 -12.1 44   LegendMM LegendMM   100.94     LegendNANA
01:00 -2.0 -11.8 47   LegendMM LegendMM   100.96     LegendNANA
02:00 -2.4 -11.9 48   LegendMM LegendMM   101.02     LegendNANA
03:00 -3.0 -11.5 52   LegendMM LegendMM   101.00     LegendNANA
04:00 -3.1 -11.4 53   LegendMM LegendMM   101.04     LegendNANA
05:00 -4.2 -10.4 62   LegendMM LegendMM   101.10     LegendNANA
06:00 -4.3 -10.1 64   LegendMM LegendMM   101.17     LegendNANA
07:00 -4.6 -10.8 62   LegendMM LegendMM   101.23     LegendNANA
08:00 -4.2 -11.7 56   LegendMM LegendMM   101.31     LegendNANA
09:00 -3.1 -12.9 47   LegendMM LegendMM   101.33     LegendNANA
10:00 -1.8 -12.6 43   LegendMM LegendMM   101.32     LegendNANA
11:00 0.1 -12.1 39   LegendMM LegendMM   101.29     LegendNANA
12:00 0.4 -12.5 37   LegendMM LegendMM   101.26     LegendNANA
13:00 0.8 -11.8 38   LegendMM LegendMM   101.22     LegendNANA
14:00 2.0 -10.2 40   LegendMM LegendMM   101.16     LegendNANA
15:00 1.8 -11.1 38   LegendMM LegendMM   101.14     LegendNANA
16:00 2.2 -10.4 39   LegendMM LegendMM   101.09     LegendNANA
17:00 2.2 -9.9 40   LegendMM LegendMM   101.08     LegendNANA
18:00 1.5 -9.6 43   LegendMM LegendMM   101.03     LegendNANA
19:00 0.9 -9.0 48   LegendMM LegendMM   101.03     LegendNANA
20:00 0.2 -8.8 51   LegendMM LegendMM   101.01     LegendNANA
21:00 -0.5 -9.1 52   LegendMM LegendMM   100.96     LegendNANA
22:00 -0.7 -8.9 54   LegendMM LegendMM   101.00     LegendNANA
23:00 -0.9 -9.7 51   LegendMM LegendMM   101.01     LegendNANA

Notes on Data Quality.

Legend

  • E = Estimated
  • M = Missing
  • NA = Not Available*
  • [empty] = Indicates an unobserved value
Date modified: